Regional Weather Roundup
Issued by NWS State College, PA

Home | Current Version | Previous Version | Graphics & Text | Print | Product List | Glossary On
Versions: 1 2 3 4 5 6 7 8 9 10 11 12 13 14 15 16 17 18 19 20 21 22 23 24 25 26 27 28 29 30 31 32 33 34 35 36 37 38 39 40 41 42 43 44 45 46 47 48 49 50
000
ASUS41 KCTP 182010
RWRCTP

REGIONAL WEATHER ROUNDUP
NATIONAL WEATHER SERVICE STATE COLLEGE PA
400 PM EDT THU SEP 18 2014

Note: "fair" indicates few or no clouds below 12,000 feet with no
significant weather and/or obstructions to visibility.

* = STATION THAT DOES NOT REPORT PRECIPITATION /E.G. RAIN...SNOW...ETC/
    THUNDER OR FOG.

PAZ002>004-007>009-013>016-020>023-029>032-182100-
WESTERN PENNSYLVANIA

CITY           SKY/WX    TMP DP  RH WIND       PRES   REMARKS
ERIE           PTSUNNY   63  51  65 N12       30.12S
MEADVILLE      MOSUNNY   65  47  52 NW9       30.10S
FRANKLIN*      CLOUDY    64  46  52 N5        30.11R
NEW CASTLE     NOT AVBL
BEAVER COUNTY  MOSUNNY   66  46  48 N3        30.09F
BUTLER*        CLOUDY    64  46  52 N7        30.10F
PITTSBURGH INT PTSUNNY   67  44  43 N6G17     30.08F
PITTSBURGH     MOSUNNY   68  41  37 VRB5      30.07F
INDIANA*       PTSUNNY   64  45  48 N7        30.12F
LATROBE        MOSUNNY   66  45  45 NW14      30.09F
WASHINGTON CO* MOSUNNY   70  45  40 NW7       30.09S
$$

PAZ004>006-010>012-017>019-024>028-033>037-041-042-045-046-049>053-182100-
CENTRAL PENNSYLVANIA

CITY           SKY/WX    TMP DP  RH WIND       PRES   REMARKS
BRADFORD       PTSUNNY   63  46  54 VRB6      30.09S
DUBOIS         PTSUNNY   66  46  48 W7        30.08S
CLEARFIELD     PTSUNNY   67  42  40 N5        30.08S
JOHNSTOWN      MOSUNNY   63  42  46 VRB7      30.08F
ALTOONA        MOSUNNY   70  48  45 N8        30.06F
STATE COLLEGE  MOSUNNY   64  45  48 NW6       30.06S
WILLIAMSPORT   PTSUNNY   70  46  42 NW5       30.02S
SELINSGROVE    SUNNY     73  46  38 VRB3      30.03S
FT INDIANTOWN  SUNNY     73  43  33 NW7       30.02S
CAPITAL CITY   MOSUNNY   75  44  33 NW7       30.02S
HARRISBURG     MOSUNNY   76  46  34 W9        30.01S
YORK           SUNNY     73  46  38 N9        30.02R
$$

PAZ038>040-043-044-047-048-054-055-060>062-067>071-182100-
EASTERN PENNSYLVANIA

CITY           SKY/WX    TMP DP  RH WIND       PRES   REMARKS
SCRANTON       MOSUNNY   72  41  32 NW10G23   30.02S
MOUNT POCONO   PTSUNNY   67  39  35 N7        30.04R
ALLENTOWN      MOSUNNY   75  45  34 NW8       30.00R
QUAKERTOWN*    PTCLDY    73  48  40 W6        30.01S
READING        MOSUNNY   74  46  36 NW5       30.00R
LANCASTER      PTSUNNY   73  44  35 N7        30.01R
COATESVILLE    CLEAR     68  55  64 CALM      30.03S
POTTSTOWN      MOSUNNY   74  50  42 NW7       30.01S
BLUE BELL      MOSUNNY   73  55  53 W5        29.99S
DOYLESTOWN     PTSUNNY   72  48  42 NW6       29.99S
WILLOW GROVE   NOT AVBL
NORTH PHILA    PTSUNNY   74  48  39 NW5       30.01R
PHILADELPHIA   PTSUNNY   70  57  63 W10       30.02R
$$


USA.gov is the U.S. government's official web portal to all federal, state and local government web resources and services.